User: anonymous   Login
Location: El Manguito
(10.2358°N, 67.3634°W)
Time: 19:21:50
(UTC+00:00)
Language:

GEOS 3 Rocket - Orbit

View from above orbital plane
View from above orbital plane
View from above satellite
View from above satellite

Ground track
Ground track

The orbit data is extracted from the following two-line orbital elements,

1  7735U 75027B   24337.50567764  .00000372  00000-0  23224-3 0  9990
2  7735 114.9723 176.3589 0021445 103.8012 256.5457 14.25293815578476
Epoch (UTC): 02 December 2024 12:08:10
Eccentricity: 0.0021445
inclination: 114.9723°
perigee height: 792 km
apogee height: 823 km
right ascension of ascending node: 176.3589°
argument of perigee: 103.8012°
revolutions per day: 14.25293815
mean anomaly at epoch: 256.5457°
orbit number at epoch: 57847

The dashed part of the orbit path shows where the satellite is in the earth's shadow,  

DLR